Location: Iesi
(43.5167°N, 13.2333°E)
Time: 01:42:07
(UTC+00:00)

Cosmos 1464 Rocket - Pass Details

Date: 08 August 2020
Orbit: 952 x 1002 km, 82.9° (Epoch: 19 September)

Event Time Altitude Azimuth Distance (km) Brightness Sun altitude
Exits shadow 23:15:39 69° 71° (ENE) 1,046 4.1 -30.7°
Drops below altitude 10° 23:21:30 10° 12° (NNE) 2,720 7.2 -30.7°
Sets 23:24:01 0° 11° (N) 3,664 8.2 -30.6°
